| time (UTC) | temp F | wind direction | speed MPH | gust MPH | rain 1hr in | rain 24hr in | rain mn in | humidity % | barometer mb |
| 20260509211027 | 93 | 17 | 2.0 | 3.0 | 0.00 | 0.00 | 0.00 | 33 | 1025.0 |
| 20260509210524 | 94 | 63 | 2.0 | 4.0 | 0.00 | 0.00 | 0.00 | 31 | 1025.1 |
| 20260509210020 | 93 | 15 | 2.0 | 3.0 | 0.00 | 0.00 | 0.00 | 32 | 1025.1 |
| 20260509205514 | 92 | 22 | 1.0 | 3.0 | 0.00 | 0.00 | 0.00 | 38 | 1025.2 |
| 20260509205010 | 92 | 335 | 3.0 | 3.0 | 0.00 | 0.00 | 0.00 | 34 | 1025.5 |
| 20260509204507 | 92 | 51 | 3.0 | 4.0 | 0.00 | 0.00 | 0.00 | 35 | 1025.5 |
| 20260509204003 | 92 | 20 | 3.0 | 4.0 | 0.00 | 0.00 | 0.00 | 36 | 1025.5 |
| 20260509203459 | 92 | 344 | 2.0 | 4.0 | 0.00 | 0.00 | 0.00 | 36 | 1025.6 |
| 20260509202956 | 92 | 52 | 2.0 | 3.0 | 0.00 | 0.00 | 0.00 | 37 | 1025.5 |
| 20260509202452 | 92 | 149 | 2.0 | 4.0 | 0.00 | 0.00 | 0.00 | 36 | 1025.7 |
| 20260509201947 | 92 | 359 | 1.0 | 2.0 | 0.00 | 0.00 | 0.00 | 40 | 1025.6 |
| 20260509201443 | 91 | 21 | 2.0 | 3.0 | 0.00 | 0.00 | 0.00 | 36 | 1025.8 |
| 20260509200940 | 91 | 7 | 0.0 | 4.0 | 0.00 | 0.00 | 0.00 | 43 | 1025.9 |
| 20260509200440 | 91 | 6 | 1.0 | 2.0 | 0.00 | 0.00 | 0.00 | 39 | 1025.8 |
| 20260509195937 | 91 | 294 | 5.0 | 5.0 | 0.00 | 0.00 | 0.00 | 37 | 1025.8 |
| 20260509195433 | 91 | 10 | 4.0 | 5.0 | 0.00 | 0.00 | 0.00 | 39 | 1026.0 |
| 20260509194932 | 91 | 67 | 2.0 | 4.0 | 0.00 | 0.00 | 0.00 | 41 | 1026.2 |
| 20260509194428 | 90 | 335 | 2.0 | 3.0 | 0.00 | 0.00 | 0.00 | 42 | 1025.9 |
| 20260509193926 | 89 | 318 | 2.0 | 4.0 | 0.00 | 0.00 | 0.00 | 43 | 1026.2 |
| 20260509193425 | 90 | 29 | 3.0 | 4.0 | 0.00 | 0.00 | 0.00 | 43 | 1026.1 |
| 20260509192921 | 91 | 341 | 4.0 | 5.0 | 0.00 | 0.00 | 0.00 | 42 | 1026.0 |
| 20260509192417 | 90 | 10 | 2.0 | 2.0 | 0.00 | 0.00 | 0.00 | 44 | 1026.0 |
| 20260509191913 | 89 | 344 | 2.0 | 3.0 | 0.00 | 0.00 | 0.00 | 43 | 1026.3 |
| 20260509191408 | 89 | 80 | 0.0 | 2.0 | 0.00 | 0.00 | 0.00 | 44 | 1026.4 |
| 20260509190905 | 90 | 346 | 1.0 | 5.0 | 0.00 | 0.00 | 0.00 | 43 | 1026.3 |
| 20260509190402 | 90 | 24 | 2.0 | 2.0 | 0.00 | 0.00 | 0.00 | 46 | 1026.3 |
| 20260509185859 | 89 | 0 | 2.0 | 2.0 | 0.00 | 0.00 | 0.00 | 49 | 1026.4 |
| 20260509185356 | 89 | 336 | 2.0 | 4.0 | 0.00 | 0.00 | 0.00 | 44 | 1026.4 |
| 20260509184853 | 89 | 314 | 2.0 | 6.0 | 0.00 | 0.00 | 0.00 | 46 | 1026.5 |
| 20260509184350 | 89 | 357 | 2.0 | 2.0 | 0.00 | 0.00 | 0.00 | 49 | 1026.4 |
| 20260509183847 | 89 | 323 | 2.0 | 4.0 | 0.00 | 0.00 | 0.00 | 45 | 1026.5 |
| 20260509183342 | 89 | 335 | 2.0 | 4.0 | 0.00 | 0.00 | 0.00 | 45 | 1026.5 |
| 20260509182838 | 89 | 335 | 2.0 | 2.0 | 0.00 | 0.00 | 0.00 | 46 | 1026.8 |
| 20260509182335 | 90 | 314 | 3.0 | 5.0 | 0.00 | 0.00 | 0.00 | 44 | 1026.8 |
| 20260509181832 | 89 | 30 | 2.0 | 2.0 | 0.00 | 0.00 | 0.00 | 43 | 1026.8 |
| 20260509181330 | 89 | 347 | 2.0 | 3.0 | 0.00 | 0.00 | 0.00 | 46 | 1026.8 |
| 20260509180827 | 88 | 17 | 0.0 | 2.0 | 0.00 | 0.00 | 0.00 | 45 | 1027.0 |
| 20260509180323 | 87 | 333 | 2.0 | 5.0 | 0.00 | 0.00 | 0.00 | 50 | 1027.0 |
| 20260509175820 | 87 | 353 | 2.0 | 6.0 | 0.00 | 0.00 | 0.00 | 50 | 1027.0 |
| 20260509175316 | 87 | 94 | 2.0 | 2.0 | 0.00 | 0.00 | 0.00 | 49 | 1027.0 |
| 20260509174812 | 87 | 342 | 1.0 | 4.0 | 0.00 | 0.00 | 0.00 | 51 | 1027.2 |
| 20260509174308 | 87 | 322 | 3.0 | 3.0 | 0.00 | 0.00 | 0.00 | 48 | 1027.1 |
| 20260509173804 | 87 | 9 | 2.0 | 3.0 | 0.00 | 0.00 | 0.00 | 48 | 1027.2 |
| 20260509173259 | 87 | 332 | 0.0 | 3.0 | 0.00 | 0.00 | 0.00 | 53 | 1027.1 |
| 20260509172755 | 87 | 13 | 2.0 | 3.0 | 0.00 | 0.00 | 0.00 | 49 | 1027.2 |
| 20260509172253 | 87 | 352 | 3.0 | 4.0 | 0.00 | 0.00 | 0.00 | 50 | 1027.4 |
| 20260509171748 | 87 | 352 | 0.0 | 4.0 | 0.00 | 0.00 | 0.00 | 50 | 1027.3 |
| 20260509171244 | 86 | 54 | 0.0 | 3.0 | 0.00 | 0.00 | 0.00 | 51 | 1027.3 |
| 20260509170741 | 86 | 336 | 2.0 | 4.0 | 0.00 | 0.00 | 0.00 | 51 | 1027.3 |
| 20260509170237 | 86 | 358 | 1.0 | 5.0 | 0.00 | 0.00 | 0.00 | 52 | 1027.4 |
| 20260509165736 | 86 | 327 | 2.0 | 3.0 | 0.00 | 0.00 | 0.00 | 53 | 1027.5 |
| 20260509165231 | 86 | 38 | 2.0 | 6.0 | 0.00 | 0.00 | 0.00 | 51 | 1027.6 |
| 20260509164727 | 85 | 346 | 2.0 | 4.0 | 0.00 | 0.00 | 0.00 | 51 | 1027.4 |
| 20260509164223 | 84 | 317 | 1.0 | 4.0 | 0.00 | 0.00 | 0.00 | 53 | 1027.6 |
| 20260509163721 | 84 | 349 | 4.0 | 4.0 | 0.00 | 0.00 | 0.00 | 52 | 1027.7 |
| 20260509163217 | 84 | 36 | 2.0 | 6.0 | 0.00 | 0.00 | 0.00 | 52 | 1027.6 |
| 20260509162715 | 84 | 359 | 1.0 | 6.0 | 0.00 | 0.00 | 0.00 | 53 | 1027.7 |
| 20260509162210 | 83 | 31 | 3.0 | 6.0 | 0.00 | 0.00 | 0.00 | 53 | 1027.7 |
| 20260509161706 | 83 | 330 | 4.0 | 6.0 | 0.00 | 0.00 | 0.00 | 52 | 1027.6 |
| 20260509161202 | 83 | 345 | 2.0 | 7.0 | 0.00 | 0.00 | 0.00 | 52 | 1027.7 |
| 20260509160657 | 83 | 327 | 3.0 | 4.0 | 0.00 | 0.00 | 0.00 | 55 | 1027.7 |
| 20260509160153 | 83 | 357 | 2.0 | 4.0 | 0.00 | 0.00 | 0.00 | 55 | 1027.8 |
| 20260509155649 | 83 | 321 | 2.0 | 5.0 | 0.00 | 0.00 | 0.00 | 56 | 1027.8 |
| 20260509155146 | 82 | 316 | 3.0 | 4.0 | 0.00 | 0.00 | 0.00 | 56 | 1027.8 |
| 20260509154641 | 82 | 339 | 3.0 | 3.0 | 0.00 | 0.00 | 0.00 | 57 | 1027.5 |
| 20260509154139 | 82 | 25 | 4.0 | 4.0 | 0.00 | 0.00 | 0.00 | 58 | 1027.7 |
| 20260509153636 | 82 | 49 | 2.0 | 4.0 | 0.00 | 0.00 | 0.00 | 58 | 1027.7 |
| 20260509153132 | 82 | 42 | 3.0 | 4.0 | 0.00 | 0.00 | 0.00 | 59 | 1027.5 |
| 20260509152628 | 81 | 63 | 2.0 | 3.0 | 0.00 | 0.00 | 0.00 | 61 | 1027.3 |
| 20260509152126 | 81 | 352 | 1.0 | 4.0 | 0.00 | 0.00 | 0.00 | 62 | 1027.5 |
| 20260509151622 | 80 | 50 | 2.0 | 3.0 | 0.00 | 0.00 | 0.00 | 61 | 1027.5 |
| 20260509151120 | 79 | 344 | 0.0 | 4.0 | 0.00 | 0.00 | 0.00 | 63 | 1027.5 |
| 20260509150617 | 78 | 318 | 4.0 | 5.0 | 0.00 | 0.00 | 0.00 | 63 | 1027.5 |
| 20260509150115 | 78 | 13 | 2.0 | 5.0 | 0.00 | 0.00 | 0.00 | 62 | 1027.5 |
| 20260509145611 | 78 | 45 | 2.0 | 4.0 | 0.00 | 0.00 | 0.00 | 64 | 1027.6 |
| 20260509145106 | 78 | 11 | 3.0 | 4.0 | 0.00 | 0.00 | 0.00 | 66 | 1027.4 |
| 20260509144604 | 78 | 44 | 2.0 | 4.0 | 0.00 | 0.00 | 0.00 | 66 | 1027.7 |
| 20260509144100 | 77 | 332 | 2.0 | 4.0 | 0.00 | 0.00 | 0.00 | 66 | 1027.5 |
| 20260509143557 | 77 | 64 | 2.0 | 4.0 | 0.00 | 0.00 | 0.00 | 69 | 1027.5 |
| 20260509143055 | 76 | 77 | 1.0 | 4.0 | 0.00 | 0.00 | 0.00 | 69 | 1027.5 |
| 20260509142550 | 75 | 19 | 2.0 | 5.0 | 0.00 | 0.00 | 0.00 | 72 | 1027.7 |
| 20260509142047 | 75 | 354 | 2.0 | 4.0 | 0.00 | 0.00 | 0.00 | 74 | 1027.7 |
| 20260509141543 | 74 | 359 | 3.0 | 4.0 | 0.00 | 0.00 | 0.00 | 75 | 1027.6 |
| 20260509141040 | 74 | 340 | 2.0 | 5.0 | 0.00 | 0.00 | 0.00 | 76 | 1027.9 |
| 20260509140537 | 73 | 7 | 3.0 | 5.0 | 0.00 | 0.00 | 0.00 | 77 | 1027.7 |
| 20260509140035 | 73 | 42 | 3.0 | 6.0 | 0.00 | 0.00 | 0.00 | 78 | 1027.8 |
| 20260509135531 | 73 | 335 | 4.0 | 5.0 | 0.00 | 0.00 | 0.00 | 78 | 1027.8 |
| 20260509135029 | 72 | 331 | 5.0 | 6.0 | 0.00 | 0.00 | 0.00 | 78 | 1027.9 |
| 20260509134526 | 72 | 333 | 5.0 | 6.0 | 0.00 | 0.00 | 0.00 | 78 | 1027.9 |
| 20260509134024 | 72 | 316 | 4.0 | 7.0 | 0.00 | 0.00 | 0.00 | 78 | 1027.9 |
| 20260509133520 | 72 | 319 | 2.0 | 5.0 | 0.00 | 0.00 | 0.00 | 79 | 1027.8 |
| 20260509133018 | 71 | 349 | 3.0 | 4.0 | 0.00 | 0.00 | 0.00 | 79 | 1027.7 |
| 20260509132516 | 71 | 11 | 2.0 | 5.0 | 0.00 | 0.00 | 0.00 | 79 | 1027.6 |
| 20260509132014 | 70 | 345 | 3.0 | 4.0 | 0.00 | 0.00 | 0.00 | 80 | 1027.5 |
| 20260509131510 | 70 | 336 | 5.0 | 5.0 | 0.00 | 0.00 | 0.00 | 80 | 1027.6 |
| 20260509131007 | 69 | 4 | 2.0 | 4.0 | 0.00 | 0.00 | 0.00 | 80 | 1027.5 |
| 20260509130502 | 69 | 345 | 3.0 | 5.0 | 0.00 | 0.00 | 0.00 | 80 | 1027.7 |
| 20260509125959 | 69 | 2 | 2.0 | 4.0 | 0.00 | 0.00 | 0.00 | 82 | 1027.6 |
| 20260509125456 | 69 | 11 | 3.0 | 3.0 | 0.00 | 0.00 | 0.00 | 82 | 1027.5 |
| 20260509124951 | 68 | 308 | 4.0 | 4.0 | 0.00 | 0.00 | 0.00 | 84 | 1027.6 |
| 20260509124449 | 68 | 3 | 2.0 | 2.0 | 0.00 | 0.00 | 0.00 | 85 | 1027.6 |
| 20260509123946 | 66 | 344 | 2.0 | 3.0 | 0.00 | 0.00 | 0.00 | 88 | 1027.7 |
| 20260509123444 | 66 | 7 | 2.0 | 2.0 | 0.00 | 0.00 | 0.00 | 89 | 1027.5 |
| 20260509122939 | 65 | 19 | 2.0 | 2.0 | 0.00 | 0.00 | 0.00 | 89 | 1027.6 |
| 20260509122436 | 65 | 23 | 2.0 | 2.0 | 0.00 | 0.00 | 0.00 | 89 | 1027.5 |
| 20260509121933 | 64 | 21 | 2.0 | 2.0 | 0.00 | 0.00 | 0.00 | 90 | 1027.5 |
| 20260509121430 | 64 | 22 | 1.0 | 2.0 | 0.00 | 0.00 | 0.00 | 89 | 1027.5 |
| 20260509120928 | 64 | 10 | 1.0 | 2.0 | 0.00 | 0.00 | 0.00 | 88 | 1027.5 |
| 20260509120426 | 64 | 8 | 2.0 | 2.0 | 0.00 | 0.00 | 0.00 | 88 | 1027.3 |
| 20260509115924 | 64 | 4 | 1.0 | 2.0 | 0.00 | 0.00 | 0.00 | 88 | 1027.3 |
| 20260509115421 | 64 | 318 | 2.0 | 2.0 | 0.00 | 0.00 | 0.00 | 87 | 1027.2 |
| 20260509114918 | 64 | 31 | 2.0 | 2.0 | 0.00 | 0.00 | 0.00 | 86 | 1027.2 |
| 20260509114417 | 65 | 1 | 2.0 | 2.0 | 0.00 | 0.00 | 0.00 | 86 | 1026.9 |
| 20260509113916 | 65 | 348 | 2.0 | 2.0 | 0.00 | 0.00 | 0.00 | 85 | 1026.9 |
| 20260509113413 | 65 | 36 | 2.0 | 2.0 | 0.00 | 0.00 | 0.00 | 84 | 1026.7 |
| 20260509112909 | 66 | 27 | 1.0 | 2.0 | 0.00 | 0.00 | 0.00 | 82 | 1026.9 |
| 20260509112407 | 66 | 17 | 1.0 | 2.0 | 0.00 | 0.00 | 0.00 | 81 | 1026.6 |
| 20260509111904 | 67 | 16 | 2.0 | 2.0 | 0.00 | 0.00 | 0.00 | 80 | 1026.4 |
| 20260509111400 | 68 | 22 | 2.0 | 2.0 | 0.00 | 0.00 | 0.00 | 79 | 1026.3 |
| 20260509110858 | 68 | 22 | 2.0 | 2.0 | 0.00 | 0.00 | 0.00 | 78 | 1026.3 |
| 20260509110354 | 68 | 25 | 2.0 | 2.0 | 0.00 | 0.00 | 0.00 | 77 | 1026.5 |
| 20260509105852 | 68 | 2 | 2.0 | 3.0 | 0.00 | 0.00 | 0.00 | 76 | 1026.4 |
| 20260509105350 | 68 | 357 | 3.0 | 4.0 | 0.00 | 0.00 | 0.00 | 75 | 1026.3 |
| 20260509104847 | 69 | 302 | 3.0 | 4.0 | 0.00 | 0.00 | 0.00 | 74 | 1026.3 |
| 20260509104343 | 69 | 358 | 2.0 | 5.0 | 0.00 | 0.00 | 0.00 | 74 | 1026.2 |
| 20260509103841 | 69 | 344 | 4.0 | 5.0 | 0.00 | 0.00 | 0.00 | 72 | 1026.5 |
| 20260509103338 | 69 | 12 | 2.0 | 3.0 | 0.00 | 0.00 | 0.00 | 73 | 1026.6 |
| 20260509102837 | 70 | 358 | 2.0 | 3.0 | 0.00 | 0.00 | 0.00 | 72 | 1026.4 |
| 20260509102334 | 70 | 358 | 2.0 | 4.0 | 0.00 | 0.00 | 0.00 | 72 | 1026.4 |
| 20260509101829 | 70 | 352 | 2.0 | 6.0 | 0.00 | 0.00 | 0.00 | 73 | 1026.3 |
| 20260509101326 | 71 | 310 | 4.0 | 5.0 | 0.00 | 0.00 | 0.00 | 79 | 1026.4 |
| 20260509100824 | 71 | 329 | 3.0 | 6.0 | 0.00 | 0.00 | 0.00 | 81 | 1026.4 |
| 20260509100321 | 71 | 9 | 2.0 | 5.0 | 0.00 | 0.00 | 0.00 | 82 | 1026.4 |
| 20260509095817 | 71 | 350 | 3.0 | 4.0 | 0.00 | 0.00 | 0.00 | 82 | 1026.2 |
| 20260509095315 | 71 | 14 | 3.0 | 6.0 | 0.00 | 0.00 | 0.00 | 82 | 1026.1 |
| 20260509094812 | 71 | 20 | 3.0 | 8.0 | 0.00 | 0.00 | 0.00 | 82 | 1026.3 |
| 20260509094308 | 71 | 14 | 3.0 | 4.0 | 0.00 | 0.00 | 0.00 | 81 | 1025.4 |
| 20260509093806 | 71 | 340 | 5.0 | 11.0 | 0.00 | 0.00 | 0.00 | 83 | 1025.5 |
| 20260509093303 | 70 | 353 | 2.0 | 3.0 | 0.00 | 0.00 | 0.00 | 90 | 1023.9 |
| 20260509092802 | 70 | 335 | 2.0 | 2.0 | 0.00 | 0.00 | 0.00 | 90 | 1023.6 |
| 20260509092259 | 70 | 298 | 6.0 | 6.0 | 0.00 | 0.00 | 0.00 | 90 | 1023.3 |
| 20260509091757 | 70 | 85 | 2.0 | 4.0 | 0.00 | 0.00 | 0.00 | 90 | 1023.1 |
| 20260509091253 | 70 | 41 | 1.0 | 3.0 | 0.00 | 0.00 | 0.00 | 90 | 1023.1 |
| 20260509090751 | 70 | 26 | 2.0 | 4.0 | 0.00 | 0.00 | 0.00 | 90 | 1023.4 |
| 20260509090248 | 70 | 347 | 2.0 | 3.0 | 0.00 | 0.00 | 0.00 | 90 | 1023.8 |
| 20260509085745 | 70 | 355 | 2.0 | 4.0 | 0.00 | 0.00 | 0.00 | 90 | 1023.7 |
| 20260509085243 | 70 | 37 | 2.0 | 3.0 | 0.00 | 0.00 | 0.00 | 90 | 1024.0 |
| 20260509084739 | 69 | 42 | 1.0 | 4.0 | 0.00 | 0.00 | 0.00 | 90 | 1024.0 |
| 20260509084235 | 69 | 11 | 2.0 | 4.0 | 0.00 | 0.00 | 0.00 | 90 | 1024.1 |
| 20260509083734 | 69 | 33 | 2.0 | 4.0 | 0.00 | 0.00 | 0.00 | 90 | 1024.1 |
| 20260509083230 | 69 | 13 | 0.0 | 3.0 | 0.00 | 0.00 | 0.00 | 90 | 1024.4 |
| 20260509082727 | 69 | 3 | 2.0 | 4.0 | 0.00 | 0.00 | 0.00 | 91 | 1024.5 |
| 20260509082224 | 69 | 91 | 2.0 | 4.0 | 0.00 | 0.00 | 0.00 | 91 | 1024.9 |
| 20260509081720 | 69 | 336 | 2.0 | 3.0 | 0.00 | 0.00 | 0.00 | 91 | 1025.0 |
| 20260509081218 | 69 | 46 | 2.0 | 4.0 | 0.00 | 0.00 | 0.00 | 91 | 1025.3 |
| 20260509080716 | 69 | 353 | 3.0 | 3.0 | 0.00 | 0.00 | 0.00 | 91 | 1025.3 |
| 20260509080213 | 69 | 60 | 2.0 | 3.0 | 0.00 | 0.00 | 0.00 | 91 | 1025.4 |
| 20260509075711 | 69 | 131 | 2.0 | 5.0 | 0.00 | 0.00 | 0.00 | 91 | 1025.5 |
| 20260509075209 | 69 | 346 | 2.0 | 3.0 | 0.00 | 0.00 | 0.00 | 91 | 1025.5 |
| 20260509074705 | 69 | 17 | 2.0 | 3.0 | 0.00 | 0.00 | 0.00 | 91 | 1025.7 |
| 20260509074202 | 69 | 341 | 2.0 | 3.0 | 0.00 | 0.00 | 0.00 | 91 | 1025.7 |
| 20260509073659 | 69 | 57 | 1.0 | 2.0 | 0.00 | 0.00 | 0.00 | 91 | 1026.2 |
| 20260509073155 | 69 | 37 | 2.0 | 3.0 | 0.00 | 0.00 | 0.00 | 90 | 1026.8 |
| 20260509072652 | 70 | 25 | 2.0 | 2.0 | 0.00 | 0.00 | 0.00 | 90 | 1027.1 |
| 20260509072149 | 70 | 6 | 1.0 | 3.0 | 0.00 | 0.00 | 0.00 | 89 | 1027.7 |
| 20260509071645 | 70 | 15 | 1.0 | 2.0 | 0.00 | 0.00 | 0.00 | 89 | 1027.7 |
| 20260509071143 | 70 | 35 | 1.0 | 2.0 | 0.00 | 0.00 | 0.00 | 89 | 1027.7 |
| 20260509070640 | 70 | 64 | 1.0 | 3.0 | 0.00 | 0.00 | 0.00 | 90 | 1028.2 |
| 20260509070136 | 70 | 41 | 2.0 | 4.0 | 0.00 | 0.00 | 0.00 | 91 | 1028.7 |
| 20260509065632 | 70 | 352 | 2.0 | 5.0 | 0.00 | 0.00 | 0.00 | 91 | 1029.0 |
| 20260509065128 | 69 | 347 | 3.0 | 5.0 | 0.00 | 0.00 | 0.00 | 92 | 1029.1 |
| 20260509064625 | 69 | 4 | 2.0 | 3.0 | 0.00 | 0.00 | 0.00 | 92 | 1028.9 |
| 20260509064124 | 69 | 7 | 2.0 | 3.0 | 0.00 | 0.00 | 0.00 | 92 | 1028.7 |
| 20260509063620 | 69 | 2 | 2.0 | 2.0 | 0.00 | 0.00 | 0.00 | 93 | 1028.6 |
| 20260509063116 | 69 | 2 | 2.0 | 2.0 | 0.00 | 0.00 | 0.00 | 93 | 1028.5 |
| 20260509062614 | 69 | 4 | 2.0 | 3.0 | 0.00 | 0.00 | 0.00 | 94 | 1028.5 |
| 20260509062111 | 68 | 20 | 2.0 | 3.0 | 0.00 | 0.00 | 0.00 | 94 | 1028.5 |
| 20260509061608 | 68 | 0 | 3.0 | 4.0 | 0.00 | 0.00 | 0.00 | 94 | 1028.6 |
| 20260509061105 | 68 | 14 | 2.0 | 3.0 | 0.00 | 0.00 | 0.00 | 94 | 1028.3 |
| 20260509060603 | 68 | 20 | 2.0 | 2.0 | 0.00 | 0.00 | 0.00 | 94 | 1027.9 |
| 20260509060058 | 68 | 19 | 2.0 | 2.0 | 0.00 | 0.00 | 0.00 | 94 | 1028.3 |
| 20260509055554 | 68 | 4 | 2.0 | 2.0 | 0.00 | 0.00 | 0.00 | 94 | 1028.3 |
| 20260509055050 | 68 | 5 | 2.0 | 3.0 | 0.00 | 0.00 | 0.00 | 94 | 1028.1 |
| 20260509054547 | 68 | 12 | 2.0 | 2.0 | 0.00 | 0.00 | 0.00 | 94 | 1028.1 |
| 20260509054045 | 68 | 359 | 2.0 | 3.0 | 0.00 | 0.00 | 0.00 | 94 | 1028.0 |
| 20260509053543 | 68 | 355 | 2.0 | 2.0 | 0.00 | 0.00 | 0.00 | 94 | 1027.9 |
| 20260509053039 | 68 | 11 | 2.0 | 3.0 | 0.00 | 0.00 | 0.00 | 94 | 1028.0 |
| 20260509052538 | 68 | 355 | 2.0 | 3.0 | 0.00 | 0.00 | 0.00 | 93 | 1027.7 |
| 20260509052035 | 68 | 19 | 2.0 | 2.0 | 0.00 | 0.00 | 0.00 | 93 | 1027.2 |
| 20260509051533 | 68 | 18 | 2.0 | 2.0 | 0.00 | 0.00 | 0.00 | 92 | 1027.2 |
| 20260509051030 | 68 | 10 | 2.0 | 2.0 | 0.00 | 0.00 | 0.00 | 93 | 1027.0 |
| 20260509050526 | 68 | 14 | 1.0 | 2.0 | 0.00 | 0.00 | 0.00 | 92 | 1027.2 |
| 20260509050023 | 68 | 12 | 2.0 | 2.0 | 0.00 | 0.00 | 0.00 | 91 | 1027.0 |
| 20260509045520 | 68 | 26 | 2.0 | 2.0 | 0.00 | 0.00 | 0.00 | 91 | 1027.0 |
| 20260509045017 | 69 | 23 | 2.0 | 2.0 | 0.00 | 0.00 | 0.00 | 91 | 1027.2 |
| 20260509044515 | 69 | 7 | 2.0 | 2.0 | 0.00 | 0.00 | 0.00 | 90 | 1027.2 |
| 20260509044012 | 69 | 18 | 2.0 | 2.0 | 0.00 | 0.00 | 0.00 | 90 | 1027.5 |
| 20260509043508 | 69 | 17 | 2.0 | 2.0 | 0.00 | 0.00 | 0.00 | 90 | 1027.4 |
| 20260509043004 | 69 | 11 | 2.0 | 2.0 | 0.00 | 0.00 | 0.00 | 89 | 1027.3 |
| 20260509042500 | 70 | 15 | 2.0 | 2.0 | 0.00 | 0.00 | 0.00 | 89 | 1027.0 |
| 20260509041956 | 70 | 30 | 2.0 | 2.0 | 0.00 | 0.00 | 0.00 | 89 | 1027.1 |
| 20260509041453 | 70 | 19 | 2.0 | 2.0 | 0.00 | 0.00 | 0.00 | 89 | 1027.3 |
| 20260509040951 | 70 | 9 | 3.0 | 4.0 | 0.00 | 0.00 | 0.00 | 88 | 1027.4 |
| 20260509040449 | 70 | 21 | 2.0 | 3.0 | 0.00 | 0.00 | 0.00 | 88 | 1027.4 |
| 20260509035946 | 71 | 27 | 2.0 | 3.0 | 0.00 | 0.00 | 0.00 | 87 | 1027.1 |
| 20260509035442 | 71 | 24 | 2.0 | 3.0 | 0.00 | 0.00 | 0.00 | 87 | 1026.8 |
| 20260509034939 | 71 | 46 | 1.0 | 2.0 | 0.00 | 0.00 | 0.00 | 87 | 1026.9 |
| 20260509034437 | 71 | 24 | 2.0 | 2.0 | 0.00 | 0.00 | 0.00 | 86 | 1026.8 |
| 20260509033934 | 71 | 337 | 2.0 | 3.0 | 0.00 | 0.00 | 0.00 | 86 | 1026.5 |
| 20260509033431 | 72 | 11 | 2.0 | 2.0 | 0.00 | 0.00 | 0.00 | 86 | 1026.2 |
| 20260509032927 | 72 | 39 | 2.0 | 2.0 | 0.00 | 0.00 | 0.00 | 86 | 1026.3 |
| 20260509032425 | 72 | 27 | 2.0 | 2.0 | 0.00 | 0.00 | 0.00 | 86 | 1026.4 |
| 20260509031923 | 72 | 47 | 2.0 | 3.0 | 0.00 | 0.00 | 0.00 | 85 | 1026.3 |
| 20260509031420 | 72 | 95 | 2.0 | 3.0 | 0.00 | 0.00 | 0.00 | 85 | 1026.0 |
| 20260509030917 | 72 | 48 | 2.0 | 3.0 | 0.00 | 0.00 | 0.00 | 85 | 1026.0 |
| 20260509030415 | 72 | 26 | 2.0 | 3.0 | 0.00 | 0.00 | 0.00 | 84 | 1026.0 |
| 20260509025912 | 72 | 356 | 2.0 | 4.0 | 0.00 | 0.00 | 0.00 | 84 | 1025.9 |
| 20260509025408 | 73 | 37 | 2.0 | 5.0 | 0.00 | 0.00 | 0.00 | 84 | 1025.6 |
| 20260509024903 | 73 | 71 | 3.0 | 3.0 | 0.00 | 0.00 | 0.00 | 84 | 1025.3 |
| 20260509024359 | 73 | 18 | 2.0 | 3.0 | 0.00 | 0.00 | 0.00 | 84 | 1025.2 |
| 20260509023856 | 73 | 55 | 2.0 | 4.0 | 0.00 | 0.00 | 0.00 | 84 | 1025.2 |
| 20260509023354 | 73 | 83 | 2.0 | 3.0 | 0.00 | 0.00 | 0.00 | 83 | 1025.4 |
| 20260509022850 | 73 | 66 | 2.0 | 3.0 | 0.00 | 0.00 | 0.00 | 83 | 1025.5 |
| 20260509022347 | 73 | 28 | 2.0 | 3.0 | 0.00 | 0.00 | 0.00 | 83 | 1025.6 |
| 20260509021844 | 73 | 78 | 2.0 | 4.0 | 0.00 | 0.00 | 0.00 | 83 | 1025.5 |
| 20260509021341 | 73 | 41 | 2.0 | 2.0 | 0.00 | 0.00 | 0.00 | 83 | 1025.4 |
| 20260509020839 | 73 | 27 | 2.0 | 2.0 | 0.00 | 0.00 | 0.00 | 83 | 1025.6 |
| 20260509020337 | 73 | 25 | 1.0 | 2.0 | 0.00 | 0.00 | 0.00 | 83 | 1025.7 |
| 20260509015834 | 73 | 37 | 2.0 | 2.0 | 0.00 | 0.00 | 0.00 | 82 | 1025.4 |
| 20260509015332 | 73 | 32 | 1.0 | 2.0 | 0.00 | 0.00 | 0.00 | 82 | 1025.7 |
| 20260509014829 | 73 | 34 | 2.0 | 2.0 | 0.00 | 0.00 | 0.00 | 82 | 1025.7 |
| 20260509014326 | 73 | 33 | 2.0 | 2.0 | 0.00 | 0.00 | 0.00 | 81 | 1025.6 |
| 20260509013822 | 73 | 31 | 2.0 | 2.0 | 0.00 | 0.00 | 0.00 | 81 | 1025.6 |
| 20260509013319 | 73 | 26 | 2.0 | 2.0 | 0.00 | 0.00 | 0.00 | 81 | 1025.6 |
| 20260509012815 | 73 | 30 | 2.0 | 2.0 | 0.00 | 0.00 | 0.00 | 80 | 1025.6 |
| 20260509012312 | 73 | 19 | 2.0 | 2.0 | 0.00 | 0.00 | 0.00 | 80 | 1025.6 |
| 20260509011809 | 74 | 28 | 2.0 | 2.0 | 0.00 | 0.00 | 0.00 | 79 | 1025.4 |
| 20260509011306 | 74 | 40 | 2.0 | 2.0 | 0.00 | 0.00 | 0.00 | 79 | 1025.2 |
| 20260509010804 | 74 | 20 | 2.0 | 2.0 | 0.00 | 0.00 | 0.00 | 79 | 1025.3 |
| 20260509010300 | 74 | 42 | 2.0 | 3.0 | 0.00 | 0.00 | 0.00 | 78 | 1025.1 |
| 20260509005758 | 74 | 18 | 2.0 | 2.0 | 0.00 | 0.00 | 0.00 | 78 | 1025.0 |
| 20260509005256 | 75 | 33 | 0.0 | 3.0 | 0.00 | 0.00 | 0.00 | 78 | 1024.8 |
| 20260509004755 | 75 | 36 | 2.0 | 3.0 | 0.00 | 0.00 | 0.00 | 78 | 1024.8 |
| 20260509004252 | 75 | 42 | 2.0 | 3.0 | 0.00 | 0.00 | 0.00 | 77 | 1024.9 |
| 20260509003751 | 75 | 9 | 1.0 | 2.0 | 0.00 | 0.00 | 0.00 | 77 | 1024.8 |
| 20260509003248 | 75 | 24 | 2.0 | 2.0 | 0.00 | 0.00 | 0.00 | 77 | 1024.8 |
| 20260509002745 | 75 | 24 | 1.0 | 2.0 | 0.00 | 0.00 | 0.00 | 76 | 1024.8 |
| 20260509002242 | 75 | 0 | 1.0 | 2.0 | 0.00 | 0.00 | 0.00 | 76 | 1025.0 |
| 20260509001740 | 75 | 32 | 2.0 | 2.0 | 0.00 | 0.00 | 0.00 | 76 | 1025.1 |
| 20260509001236 | 75 | 25 | 1.0 | 2.0 | 0.00 | 0.00 | 0.00 | 76 | 1025.3 |
| 20260509000734 | 75 | 1 | 1.0 | 2.0 | 0.00 | 0.00 | 0.00 | 76 | 1025.2 |
| 20260509000231 | 75 | 23 | 2.0 | 2.0 | 0.00 | 0.00 | 0.00 | 76 | 1025.1 |
| 20260508235728 | 75 | 20 | 2.0 | 2.0 | 0.00 | 0.00 | 0.00 | 75 | 1025.2 |
| 20260508235224 | 76 | 73 | 2.0 | 2.0 | 0.00 | 0.00 | 0.00 | 75 | 1025.2 |
| 20260508234722 | 76 | 17 | 2.0 | 2.0 | 0.00 | 0.00 | 0.00 | 75 | 1025.4 |
| 20260508234218 | 76 | 9 | 2.0 | 3.0 | 0.00 | 0.00 | 0.00 | 74 | 1025.3 |
| 20260508233717 | 76 | 354 | 2.0 | 2.0 | 0.00 | 0.00 | 0.00 | 74 | 1025.2 |
| 20260508233215 | 76 | 312 | 3.0 | 3.0 | 0.00 | 0.00 | 0.00 | 74 | 1025.2 |
| 20260508232712 | 76 | 11 | 2.0 | 2.0 | 0.00 | 0.00 | 0.00 | 74 | 1025.2 |
| 20260508232208 | 76 | 61 | 2.0 | 2.0 | 0.00 | 0.00 | 0.00 | 74 | 1025.3 |
| 20260508231707 | 76 | 348 | 2.0 | 2.0 | 0.00 | 0.00 | 0.00 | 74 | 1025.4 |
| 20260508231203 | 76 | 46 | 2.0 | 3.0 | 0.00 | 0.00 | 0.00 | 73 | 1025.4 |
| 20260508230700 | 76 | 8 | 3.0 | 3.0 | 0.00 | 0.00 | 0.00 | 72 | 1025.5 |
| 20260508230156 | 76 | 12 | 2.0 | 3.0 | 0.00 | 0.00 | 0.00 | 72 | 1025.4 |
| 20260508225655 | 76 | 34 | 1.0 | 2.0 | 0.00 | 0.00 | 0.00 | 72 | 1025.4 |
| 20260508225150 | 76 | 45 | 1.0 | 3.0 | 0.00 | 0.00 | 0.00 | 72 | 1025.2 |
| 20260508224648 | 77 | 29 | 2.0 | 3.0 | 0.00 | 0.00 | 0.00 | 71 | 1025.4 |
| 20260508224145 | 77 | 51 | 0.0 | 3.0 | 0.00 | 0.00 | 0.00 | 71 | 1025.2 |
| 20260508223643 | 77 | 11 | 2.0 | 3.0 | 0.00 | 0.00 | 0.00 | 70 | 1025.3 |
| 20260508223140 | 77 | 106 | 2.0 | 4.0 | 0.00 | 0.00 | 0.00 | 70 | 1025.3 |
| 20260508222637 | 77 | 14 | 2.0 | 3.0 | 0.00 | 0.00 | 0.00 | 71 | 1025.3 |
| 20260508222134 | 77 | 64 | 1.0 | 3.0 | 0.00 | 0.00 | 0.00 | 70 | 1025.5 |
| 20260508221630 | 77 | 71 | 2.0 | 5.0 | 0.00 | 0.00 | 0.00 | 69 | 1025.3 |
| 20260508221126 | 77 | 39 | 2.0 | 5.0 | 0.00 | 0.00 | 0.00 | 71 | 1025.3 |
| 20260508220623 | 76 | 132 | 2.0 | 4.0 | 0.00 | 0.00 | 0.00 | 72 | 1025.3 |
| 20260508220120 | 75 | 36 | 2.0 | 5.0 | 0.00 | 0.00 | 0.00 | 73 | 1025.6 |
| 20260508215617 | 76 | 75 | 0.0 | 4.0 | 0.00 | 0.00 | 0.00 | 72 | 1025.5 |
| 20260508215113 | 77 | 16 | 2.0 | 3.0 | 0.00 | 0.00 | 0.00 | 70 | 1025.7 |
| 20260508214610 | 77 | 35 | 2.0 | 3.0 | 0.00 | 0.00 | 0.00 | 69 | 1025.7 |
| 20260508214107 | 76 | 23 | 3.0 | 4.0 | 0.00 | 0.00 | 0.00 | 71 | 1025.7 |
| 20260508213604 | 75 | 63 | 3.0 | 5.0 | 0.00 | 0.00 | 0.00 | 69 | 1025.8 |
| 20260508213100 | 76 | 85 | 4.0 | 5.0 | 0.00 | 0.00 | 0.00 | 68 | 1026.0 |
| 20260508212557 | 76 | 112 | 4.0 | 4.0 | 0.00 | 0.00 | 0.00 | 69 | 1025.8 |
| 20260508212053 | 75 | 114 | 2.0 | 4.0 | 0.00 | 0.00 | 0.00 | 71 | 1026.1 |
| 20260508211548 | 75 | 33 | 1.0 | 2.0 | 0.00 | 0.00 | 0.00 | 73 | 1026.5 |